Location: Villingen
(48.0639°N, 8.4609°E)
Time: 17:36:00
(UTC+01:00)

ISS - Pass Details

Date: 15 November 2017
Orbit: 402 x 407 km, 51.6° (Epoch: 22 November)

Event Time Altitude Azimuth Distance (km) Brightness Sun altitude
Exits shadow 06:28:01 15° 262° (W) 1,182 -2.0 -10.9°
Maximum altitude 06:29:46 23° 219° (SW) 905 -2.3 -10.6°
Drops below altitude 10° 06:32:25 10° 164° (SSE) 1,448 -0.6 -10.2°
Sets 06:34:44 0° 150° (SSE) 2,304 0.8 -9.8°
